Weather History for Canton, GA

Change the Weather History Date:

Wednesday, November 14, 2012

  Actual Average (KGVL) Record (KGVL)
Temperature  
Mean Temperature 45 °F 53 °F  
Max Temperature 51 °F 63 °F 79 °F (1931)
Min Temperature 39 °F 44 °F 23 °F (1941)
Degree Days  
Heating Degree Days 20 12  
Month to date heating degree days 141  
Since 1 July heating degree days 299  
Moisture  
Dew Point 23 °F    
Average Humidity 42    
Maximum Humidity 61    
Minimum Humidity 28    
Precipitation  
Precipitation 0.00 in 0.13 in 1.34 in (1998)
Month to date precipitation 1.68  
Snow  
Snow - - - ()
Month to date snowfall  
Since 1 July snowfall  
Since 1 September snowfall  
Snow Depth -    
Sea Level Pressure  
Sea Level Pressure 30.33 in    
Wind  
Wind Speed 5 mph ()    
Max Wind Speed 16 mph    
Max Gust Speed 24 mph    
Visibility 10.0 miles    
Events      
T = Trace of Precipitation, MM = Missing Value Source: Averaged Metar Reports

Daily Weather History Graph

Daily Weather History Graph

Search for Another Location

Airport:

Trip Planner

Search our weather history database for the weather conditions in past years. The results will help you decide how hot, cold, wet, or windy it might be!

Date:

Astronomy

Nov. 14, 2012 Rise Set
Actual Time 7:10 AM EST 5:33 PM EST
Civil Twilight 6:43 AM EST 6:00 PM EST
Nautical Twilight 6:13 AM EST 6:30 PM EST
Astronomical Twilight 5:43 AM EST 7:00 PM EST
Moon 7:56 AM EST (11/14) 6:24 PM EST (11/14)
Length of Visible Light 11h 16m
Length of Day
10h 23m
New Moon, 1% of the Moon is Illuminated
Nov 14
New Moon
Nov 20
First Quarter
Nov 28
Full
Dec 6
Last Quarter
Dec 13
New

Hourly Weather History & Observations

Time (EST) Temp. Windchill Dew Point Humidity Pressure Visibility Wind Dir Wind Speed Gust Speed Precip Events Conditions
12:15 AM 42.8 °F - 28.4 °F 57% 30.32 in 10.0 mi Calm Calm - N/A   Clear
12:35 AM 41.0 °F 38.0 °F 28.4 °F 61% 30.32 in 10.0 mi East 4.6 mph - N/A   Clear
12:55 AM 41.0 °F 38.0 °F 28.4 °F 61% 30.32 in 10.0 mi ENE 4.6 mph - N/A   Clear
1:15 AM 41.0 °F 39.0 °F 28.4 °F 61% 30.32 in 10.0 mi ENE 3.5 mph - N/A   Clear
1:55 AM 42.8 °F 39.3 °F 24.8 °F 49% 30.32 in 10.0 mi ENE 5.8 mph - N/A   Clear
2:15 AM 42.8 °F 38.6 °F 24.8 °F 49% 30.31 in 10.0 mi ENE 6.9 mph - N/A   Clear
2:35 AM 42.8 °F 39.3 °F 23.0 °F 46% 30.32 in 10.0 mi ENE 5.8 mph - N/A   Clear
2:55 AM 42.8 °F 40.1 °F 23.0 °F 46% 30.32 in 10.0 mi ENE 4.6 mph - N/A   Clear
3:15 AM 41.0 °F 39.0 °F 23.0 °F 49% 30.33 in 10.0 mi ENE 3.5 mph - N/A   Clear
3:35 AM 41.0 °F 38.0 °F 23.0 °F 49% 30.33 in 10.0 mi East 4.6 mph - N/A   Clear
3:55 AM 41.0 °F - 23.0 °F 49% 30.33 in 10.0 mi Calm Calm - N/A   Clear
4:15 AM 41.0 °F 38.0 °F 23.0 °F 49% 30.33 in 10.0 mi East 4.6 mph - N/A   Clear
4:35 AM 41.0 °F 37.1 °F 23.0 °F 49% 30.33 in 10.0 mi East 5.8 mph - N/A   Clear
4:55 AM 41.0 °F 38.0 °F 23.0 °F 49% 30.34 in 10.0 mi ENE 4.6 mph - N/A   Clear
5:15 AM 39.2 °F 35.0 °F 23.0 °F 52% 30.34 in 10.0 mi ENE 5.8 mph - N/A   Clear
5:35 AM 41.0 °F 36.4 °F 23.0 °F 49% 30.35 in 10.0 mi East 6.9 mph - N/A   Clear
5:55 AM 39.2 °F 35.0 °F 23.0 °F 52% 30.35 in 10.0 mi ENE 5.8 mph - N/A   Clear
6:15 AM 39.2 °F 35.0 °F 23.0 °F 52% 30.35 in 10.0 mi ENE 5.8 mph - N/A   Clear
6:35 AM 39.2 °F 35.9 °F 21.2 °F 49% 30.36 in 10.0 mi ENE 4.6 mph - N/A   Clear
6:55 AM 39.2 °F 35.0 °F 21.2 °F 49% 30.36 in 10.0 mi ENE 5.8 mph - N/A   Clear
7:15 AM 39.2 °F 34.2 °F 21.2 °F 49% 30.37 in 10.0 mi ENE 6.9 mph - N/A   Clear
7:35 AM 39.2 °F 33.6 °F 21.2 °F 49% 30.37 in 10.0 mi ENE 8.1 mph - N/A   Clear
7:55 AM 41.0 °F 35.8 °F 21.2 °F 45% 30.38 in 10.0 mi ENE 8.1 mph 18.4 mph N/A   Clear
8:15 AM 41.0 °F 35.2 °F 21.2 °F 45% 30.38 in 10.0 mi ENE 9.2 mph 16.1 mph N/A   Clear
8:35 AM 42.8 °F 36.6 °F 21.2 °F 42% 30.39 in 10.0 mi ENE 11.5 mph 17.3 mph N/A   Clear
8:55 AM 42.8 °F 38.0 °F 23.0 °F 46% 30.40 in 10.0 mi East 8.1 mph 17.3 mph N/A   Clear
9:15 AM 42.8 °F 35.1 °F 23.0 °F 46% 30.40 in 10.0 mi East 16.1 mph 24.2 mph N/A   Clear
9:35 AM 44.6 °F 39.2 °F 24.8 °F 46% 30.40 in 10.0 mi ENE 10.4 mph 19.6 mph N/A   Clear
9:55 AM 44.6 °F 38.1 °F 24.8 °F 46% 30.39 in 10.0 mi ENE 13.8 mph 17.3 mph N/A   Clear
10:15 AM 44.6 °F 37.4 °F 23.0 °F 43% 30.39 in 10.0 mi ENE 16.1 mph 21.9 mph N/A   Clear
10:35 AM 46.4 °F 41.1 °F 23.0 °F 40% 30.39 in 10.0 mi East 11.5 mph 19.6 mph N/A   Clear
10:55 AM 46.4 °F 40.4 °F 23.0 °F 40% 30.38 in 10.0 mi ENE 13.8 mph 19.6 mph N/A   Clear
11:15 AM 46.4 °F 42.9 °F 23.0 °F 40% 30.37 in 10.0 mi East 6.9 mph 17.3 mph N/A   Clear
11:35 AM 48.2 °F - 23.0 °F 37% 30.36 in 10.0 mi East 5.8 mph - N/A   Clear
11:55 AM 50.0 °F - 21.2 °F 32% 30.35 in 10.0 mi ENE 12.7 mph 17.3 mph N/A   Clear
12:15 PM 50.0 °F - 21.2 °F 32% 30.34 in 10.0 mi ENE 11.5 mph 17.3 mph N/A   Clear
12:35 PM 50.0 °F - 19.4 °F 30% 30.33 in 10.0 mi East 10.4 mph 19.6 mph N/A   Clear
12:55 PM 50.0 °F - 21.2 °F 32% 30.33 in 10.0 mi ENE 6.9 mph - N/A   Clear
1:15 PM 50.0 °F - 21.2 °F 32% 30.32 in 10.0 mi East 6.9 mph - N/A   Clear
1:35 PM 50.0 °F - 19.4 °F 30% 30.32 in 10.0 mi ESE 4.6 mph - N/A   Mostly Cloudy
1:55 PM 51.8 °F - 19.4 °F 28% 30.31 in 10.0 mi ENE 5.8 mph - N/A   Mostly Cloudy
2:15 PM 51.8 °F - 19.4 °F 28% 30.30 in 10.0 mi ENE 6.9 mph - N/A   Scattered Clouds
2:35 PM 51.8 °F - 19.4 °F 28% 30.30 in 10.0 mi East 6.9 mph - N/A   Scattered Clouds
2:55 PM 51.8 °F - 21.2 °F 30% 30.29 in 10.0 mi East 3.5 mph - N/A   Mostly Cloudy
3:15 PM 51.8 °F - 21.2 °F 30% 30.29 in 10.0 mi ENE 5.8 mph - N/A   Overcast
3:55 PM 51.8 °F - 21.2 °F 30% 30.28 in 10.0 mi ESE 8.1 mph - N/A   Mostly Cloudy
4:15 PM 51.8 °F - 21.2 °F 30% 30.28 in 10.0 mi ENE 6.9 mph - N/A   Overcast
4:35 PM 51.8 °F - 21.2 °F 30% 30.30 in 10.0 mi East 4.6 mph - N/A   Overcast
4:55 PM 51.8 °F - 21.2 °F 30% 30.28 in 10.0 mi ENE 8.1 mph - N/A   Overcast
5:15 PM 50.0 °F - 21.2 °F 32% 30.29 in 10.0 mi East 4.6 mph - N/A   Overcast
5:35 PM 50.0 °F - 21.2 °F 32% 30.28 in 10.0 mi East 4.6 mph - N/A   Overcast
5:55 PM 50.0 °F - 23.0 °F 35% 30.28 in 10.0 mi Calm Calm - N/A   Overcast
6:15 PM 50.0 °F - 23.0 °F 35% 30.28 in 10.0 mi Calm Calm - N/A   Mostly Cloudy
6:35 PM 50.0 °F - 23.0 °F 35% 30.29 in 10.0 mi ESE 4.6 mph - N/A   Mostly Cloudy
6:55 PM 50.0 °F - 24.8 °F 37% 30.29 in 10.0 mi ENE 4.6 mph - N/A   Overcast
7:15 PM 48.2 °F - 23.0 °F 37% 30.31 in 10.0 mi Calm Calm - N/A   Overcast
7:35 PM 50.0 °F - 23.0 °F 35% 30.31 in 10.0 mi Calm Calm - N/A   Overcast
7:55 PM 50.0 °F - 24.8 °F 37% 30.31 in 10.0 mi Calm Calm - N/A   Overcast
8:15 PM 48.2 °F - 24.8 °F 40% 30.30 in 10.0 mi ENE 3.5 mph - N/A   Overcast
8:35 PM 48.2 °F - 24.8 °F 40% 30.31 in 10.0 mi Calm Calm - N/A   Overcast
8:55 PM 48.2 °F - 23.0 °F 37% 30.31 in 10.0 mi East 3.5 mph - N/A   Overcast
9:15 PM 48.2 °F - 24.8 °F 40% 30.31 in 10.0 mi East 3.5 mph - N/A   Overcast
9:35 PM 48.2 °F - 24.8 °F 40% 30.31 in 10.0 mi East 4.6 mph - N/A   Overcast
9:55 PM 48.2 °F - 24.8 °F 40% 30.30 in 10.0 mi ENE 8.1 mph - N/A   Overcast
10:15 PM 48.2 °F - 24.8 °F 40% 30.29 in 10.0 mi ENE 9.2 mph - N/A   Overcast
10:35 PM 48.2 °F - 23.0 °F 37% 30.29 in 10.0 mi East 5.8 mph - N/A   Overcast
10:55 PM 46.4 °F 42.4 °F 24.8 °F 43% 30.28 in 10.0 mi East 8.1 mph - N/A   Overcast
11:15 PM 46.4 °F 42.4 °F 26.6 °F 46% 30.28 in 10.0 mi East 8.1 mph - N/A   Overcast
11:35 PM 46.4 °F 41.9 °F 28.4 °F 50% 30.28 in 10.0 mi East 9.2 mph - N/A   Overcast
11:55 PM 44.6 °F 40.2 °F 28.4 °F 53% 30.28 in 10.0 mi East 8.1 mph - N/A   Overcast